{"data":{"norad_id":48678,"epoch":"2026-09-19T18:07:46.567776Z","epoch_age_seconds":105642,"freshness":"FRESH","line1":"1 48678U 21044AS  26262.75540009 -.00000415  00000+0 -16209-5 0  9996","line2":"2 48678  53.1583 280.6454 0001016  93.9474 266.1643 15.31703907293708","mean_motion":15.31703907,"eccentricity":0.0001016,"inclination_deg":53.1583,"raan_deg":280.6454,"arg_perigee_deg":93.9474,"mean_anomaly_deg":266.1643,"bstar":-1.6209e-6,"rev_number":29370,"period_min":94.012948156566,"perigee_km":470.03250396728,"apogee_km":471.42419340613,"semimajor_km":6848.8653486867,"source":"CELESTRAK","updated_at":"2026-09-20T09:00:39.242559Z"}}